This demonstration page uses our WeatherBlox Daily Observations layout. Learn more.

Left ArrowRight Arrow

41.12389, -100.76542

Hourly Observations for September 30, 2020

Temp ( °F °C ) Dew Point ( °F °C ) Humidity (%) Winds ( mph kmh ) Pressure ( in mb ) Visibility ( mi km ) Precip ( " mm )
12:53 am 00:53 Clear 47 8.3 37 2.8 69 69 NW 7 11 29.91 1013 10 16 0.00 0.00
1:53 am 01:53 Clear 46 7.8 36 2.2 68 68 NW 8 13 29.93 1013 10 16 0.00 0.00
2:53 am 02:53 Clear 45 7.2 37 2.8 74 74 NW 8 13 29.93 1014 10 16 0.00 0.00
3:53 am 03:53 Clear 43 6.1 35 1.7 74 74 WNW 6 9 29.92 1013 10 16 0.00 0.00
4:53 am 04:53 Clear 41 5 35 1.7 79 79 WNW 8 13 29.95 1014 10 16 0.00 0.00
5:53 am 05:53 Clear 42 5.6 36 2.2 79 79 NW 8 13 29.97 1015 10 16 0.00 0.00
6:53 am 06:53 Clear 41 5 35 1.7 79 79 NW 6 9 30.03 1017 10 16 0.00 0.00
7:53 am 07:53 Sunny 57 13.9 40 4.4 53 53 NNW 12 19 30.06 1018 10 16 0.00 0.00
8:53 am 08:53 Sunny 60 15.6 40 4.4 47 47 NNW 16 26 30.11 1020 10 16 0.00 0.00
9:53 am 09:53 Sunny 63 17.2 41 5 45 45 N 20 31 30.15 1021 10 16 0.00 0.00
10:53 am 10:53 Sunny 64 17.8 38 3.3 38 38 N 20 31 30.19 1022 10 16 0.00 0.00
11:53 am 11:53 Sunny 67 19.4 30 -1.1 25 25 NNW 23 37 30.20 1023 10 16 0.00 0.00
12:53 pm 12:53 Sunny 68 20 28 -2.2 22 22 N 16 26 30.21 1023 10 16 0.00 0.00
1:53 pm 13:53 Sunny 69 20.6 25 -3.9 19 19 NNW 22 35 30.21 1023 10 16 0.00 0.00
2:53 pm 14:53 Partly Cloudy 69 20.6 24 -4.4 18 18 N 23 37 30.19 1022 10 16 0.00 0.00
3:53 pm 15:53 Sunny 69 20.6 24 -4.4 18 18 NW 21 33 30.19 1022 10 16 0.00 0.00
4:53 pm 16:53 Sunny 68 20 24 -4.4 19 19 N 20 31 30.19 1022 10 16 0.00 0.00
5:53 pm 17:53 Sunny 66 18.9 22 -5.6 19 19 N 21 33 30.20 1023 10 16 0.00 0.00
6:53 pm 18:53 Sunny 63 17.2 21 -6.1 20 20 NNW 18 30 30.20 1023 10 16 0.00 0.00
7:53 pm 19:53 Clear 57 13.9 22 -5.6 26 26 NNW 5 7 30.20 1023 10 16 0.00 0.00
8:53 pm 20:53 Mostly Clear 53 11.7 26 -3.3 35 35 W 3 6 30.22 1023 10 16 0.00 0.00
9:53 pm 21:53 Partly Cloudy 47 8.3 27 -2.8 46 46 WNW 3 6 30.24 1024 10 16 0.00 0.00
10:53 pm 22:53 Cloudy 48 8.9 28 -2.2 46 46 WNW 3 6 30.27 1025 10 16 0.00 0.00
11:53 pm 23:53 Cloudy 51 10.6 29 -1.7 43 43 W 9 15 30.26 1025 10 16 0.00 0.00

Powered by AerisWeather